CAPE
32 35 188 171 602 1094 273 132 186 134 108 94 7 299 146 145 318 149 5 17 4 153 490 739 1542 1953 2611 2916 2860 2679 2191 2005 2009 1922 2226 1899 1908 1968 1889 1943 1828 1808 1699 1753 1725 1547 1459 1354 1332
141 186 385 692 450 263 48 113 43 122 232 94 205 260 199 379 41 17 72 0 2 258 478 856 1682 2110 2334 2602 2543 2496 1960 1942 1984 2265 1968 1873 1940 1898 1715 1646 1808 1785 1597 1748 1689 1632 1374 1152 1255
317 422 375 751 711 56 47 57 231 275 266 151 348 174 425 530 20 42 57 0 36 394 700 1367 1824 2093 2303 2137 2287 2313 1968 1973 2078 2068 2210 1883 1740 1756 1725 1737 1503 1774 1991 1827 1746 1587 1469 1296 1263
478 514 546 353 197 159 104 155 240 223 225 253 289 302 409 423 201 147 3 0 273 405 907 1409 1917 2100 1915 1902 2109 2045 1996 2030 2040 2022 1800 1786 1884 1831 1832 1942 1888 1562 1593 1638 1630 1577 1467 1301 1159
758 1118 1136 1036 218 101 103 171 348 275 343 312 403 477 502 221 281 282 36 505 474 596 963 1609 2093 2379 2058 1863 1848 1933 2038 2161 1893 1795 1704 1689 1768 1819 2021 1739 2035 1773 1569 1519 1498 1475 1434 1277 1143
1329 1055 567 265 40 54 114 190 223 322 522 407 544 474 518 274 261 264 303 461 571 709 746 1383 1860 2241 2189 1798 1792 2006 2164 1947 1852 1754 1715 1715 1729 1746 1760 1865 2047 1796 1582 1389 1361 1340 1455 1620 1581
1522 987 424 54 24 66 115 213 224 259 474 537 445 591 651 449 246 442 428 566 581 503 929 1085 1172 1776 1903 1888 1878 1844 1817 1939 1890 1810 1761 1689 1662 1661 1574 1636 1713 1680 1605 1425 1305 1336 1414 1650 1569
889 667 320 111 1 48 84 194 57 289 524 518 912 872 740 626 354 305 436 339 324 626 821 570 819 1091 1478 1669 1839 1725 1748 1803 1828 1806 1756 1722 1683 1763 1827 1679 1710 1554 1440 1433 1399 1471 1611 1755 1686
415 258 190 85 121 114 100 36 72 232 424 482 431 897 870 674 442 353 361 290 352 515 593 353 615 881 1022 1177 1539 1767 1816 1823 1778 1700 1712 1677 2054 2404 2012 2003 1783 1395 1342 1344 1530 1374 1840 1815 1948
323 161 163 220 184 111 315 123 1 135 345 371 623 1020 732 733 561 389 437 522 429 524 411 252 355 544 791 489 1175 1056 847 790 1495 1819 1676 1478 1890 1817 2131 1798 1842 1575 1459 1459 1461 1463 1550 1954 1834
219 125 79 70 112 223 254 528 229 8 315 277 688 991 693 827 650 511 680 585 743 483 271 166 346 595 598 1113 847 922 608 819 1253 1896 2027 1701 2134 2173 1769 2082 2063 2014 2032 1797 1888 1657 1576 1549 1237
112 92 152 104 79 127 242 581 500 245 39 324 528 869 756 874 941 975 642 995 902 458 284 239 486 1404 809 836 692 577 418 769 949 1474 1946 2001 1822 1582 1736 1752 2205 2889 2804 2232 2016 2169 1441 903 1854
70 61 90 336 187 75 295 485 635 385 94 203 534 802 832 846 916 942 944 938 775 531 346 354 497 1298 1066 1006 751 541 360 415 521 1168 1759 1595 1520 1915 1921 2037 1940 2414 2103 2279 1949 2081 1296 1694 796
24 43 73 216 157 50 154 444 485 665 332 357 585 770 831 857 941 997 942 797 780 586 490 474 669 1100 1184 1570 1382 757 531 317 423 602 1015 1506 1562 1416 1380 1940 2106 2384 2077 1976 1546 2082 2133 2186 1225
36 8 17 116 117 96 49 190 415 668 724 645 754 698 776 825 918 939 901 811 748 657 628 652 814 1055 1370 1327 1428 1264 684 474 407 466 879 1372 1608 1942 2117 1801 2189 2029 2093 1845 1539 1461 1314 1082 1173
1 6 51 17 0 44 26 132 219 819 951 877 862 691 681 751 825 879 865 765 756 643 687 702 627 821 1270 1756 1577 1216 614 298 303 215 682 1285 1554 1998 2655 2420 1656 2915 1668 1618 2417 1211 1537 760 312
0 0 1 31 11 47 0 83 5 746 945 1040 1010 928 613 699 759 800 857 781 722 718 741 780 796 624 1158 1923 1589 1510 1870 564 228 139 459 1888 1745 1987 2596 2846 2161 1992 2080 1219 2441 1613 1546 1364 450
0 0 2 3 56 50 34 60 273 678 778 941 1124 1068 838 563 630 679 696 640 606 702 814 1367 962 2073 2666 1768 2232 1145 651 540 307 136 546 1575 1790 2114 2700 2183 2343 2200 1593 1515 2326 1764 1629 273 20
0 0 0 28 42 31 101 76 135 437 596 487 973 1130 981 661 505 522 508 405 470 653 904 1503 1953 2803 1943 1270 1163 927 507 590 251 222 991 1262 1729 2199 2575 2356 2412 1927 2124 1996 1621 1765 990 402 1
0 0 0 0 25 47 90 145 171 135 419 517 651 1065 1005 913 606 434 487 450 461 694 1512 2267 2582 3396 2788 1615 1806 940 1005 204 158 164 1745 1580 2031 2725 2335 2505 1891 3094 2095 2077 1730 1437 911 166 1
0 0 0 0 1 60 25 89 74 88 136 402 321 1000 945 1086 931 531 482 476 417 703 1668 2107 2941 3238 2901 2479 1969 1900 1265 1013 277 396 789 1870 2256 2529 2512 2883 2427 2049 2339 2758 2232 1751 833 1329 0
0 0 0 0 7 33 0 65 54 38 73 76 182 646 973 1038 1130 832 503 479 446 663 998 2305 3216 3414 3257 3387 1941 2172 900 437 201 593 687 1762 2597 2479 2414 2624 1983 1919 1975 3503 2349 1500 1505 1245 58
0 0 0 0 0 8 6 34 67 44 31 54 117 145 692 890 1062 966 682 434 433 378 620 1576 3321 3636 3355 3369 2950 1949 1910 579 431 525 2232 2673 3707 3194 2106 2928 2896 2070 2048 3029 2011 2169 2135 1320 604
0 0 0 0 0 0 0 9 35 35 62 86 148 150 242 829 940 990 921 497 379 306 446 1163 3422 4112 3996 3974 3588 3755 2701 1988 564 1269 1389 1414 1448 2253 3395 2542 3512 3387 3187 2863 2669 2712 2322 2332 764
0 0 0 0 0 0 0 0 0 7 23 38 52 175 213 643 947 1044 976 743 712 621 974 1360 3350 4243 4300 4152 3709 3356 3806 3423 3184 3199 1652 2156 1199 1140 2875 3736 3891 2765 3765 3453 3705 3793 3054 2349 1745
0 0 0 0 0 0 0 0 0 0 1 17 39 64 217 457 884 1061 1105 1022 864 1118 1550 1990 3266 4132 4308 4152 4199 4141 4063 2376 2083 2389 1857 1497 1345 1196 3346 4116 3346 3397 3116 3486 4130 2913 2521 2983 2063
0 0 0 0 0 0 0 0 0 0 0 0 0 0 144 304 690 979 1186 1092 1009 1334 1969 2286 3245 4117 4341 4144 4372 4397 4221 3848 2572 2670 3418 2157 2931 1389 2580 2677 3164 3504 3624 4005 4193 2485 3439 3030 2737
0 0 0 0 0 0 0 0 0 0 0 0 0 0 0 223 591 898 1099 1279 1449 1215 1789 2485 2986 4082 4138 4134 4244 4274 4362 4332 3903 3704 3900 3269 3218 3872 2865 3266 2920 3372 3829 4019 4319 3054 3453 3390 2308
0 0 0 0 0 0 0 0 0 0 0 0 0 0 0 20 369 658 941 1174 1553 1395 1389 2072 2934 3503 4226 4177 4144 4285 4294 4274 4385 3970 4011 3960 4336 4555 3841 4104 3590 3699 3784 4041 4356 4015 3561 3395 3169
0 0 0 0 0 0 0 0 0 0 0 0 0 0 0 3 127 412 744 1057 1227 1664 1520 1809 2279 2607 3774 3952 4069 4226 4316 4307 4225 4256 4062 4244 4293 4456 4598 4093 4203 3947 3796 4071 4409 3830 2591 3463 3170
CIN
-133 -74 -20 -22 -0 -0 -4 -2 -0 -0 -1 -4 -58 -0 -16 -37 -7 -18 -44 -75 -74 -1 -0 -0 -0 -0 -0 -0 -0 -0 -0 -0 -0 -0 -0 -0 -0 -0 -0 -0 -0 -0 -0 -0 -0 -0 -0 -0 -0
-56 -27 -6 -3 -9 -22 -13 -8 -9 -5 -0 -5 -3 -1 -4 -2 -78 -117 -35 -50 -8 -3 -0 -0 -0 -0 -0 -0 -0 -0 -0 -0 -0 -1 -0 -0 -0 -0 -0 -0 -0 -0 -0 -0 -0 -0 -0 -1 -0
-38 -26 -4 -0 -18 -23 -1 -7 -1 -0 -0 -1 -0 -18 -0 -4 -98 -97 -41 -0 -5 -0 -1 -0 -0 -0 -0 -0 -0 -0 -0 -0 -0 -2 -0 -0 -0 -0 -0 -0 -0 -0 -0 -0 -0 -0 -0 -1 -4
-36 -14 -4 -9 -88 -0 -1 -0 -0 -3 -2 -0 -0 -0 -0 -8 -36 -37 -21 -0 -0 -2 -0 -0 -0 -0 -0 -0 -0 -0 -0 -0 -0 -0 -0 -0 -0 -0 -0 -0 -0 -5 -1 -0 -0 -2 -6 -8 -10
-12 -8 -0 -2 -0 -2 -2 -1 -2 -9 -0 -0 -3 -0 -0 -1 -1 -1 -82 -0 -0 -0 -0 -0 -0 -0 -0 -0 -0 -0 -0 -0 -0 -0 -0 -0 -0 -0 -0 -0 -0 -0 -1 -3 -4 -9 -10 -14 -16
-1 -2 -24 -113 -0 -0 -1 -0 -1 -0 -0 -0 -5 -3 -0 -2 -0 -3 -1 -0 -0 -0 -0 -0 -0 -0 -0 -0 -0 -0 -0 -0 -0 -0 -0 -0 -0 -0 -1 -0 -0 -0 -2 -8 -15 -16 -15 -10 -9
-6 -0 -35 -2 -0 -41 -7 -0 -0 -0 -0 -0 -23 -19 -4 -3 -1 -0 -0 -0 -0 -0 -0 -0 -0 -0 -0 -0 -0 -0 -0 -0 -0 -0 -0 -0 -3 -12 -20 -14 -8 -4 -4 -10 -18 -22 -18 -14 -17
-2 -0 -5 -7 -2 -0 -23 -0 -2 -0 -0 -0 -0 -20 -29 -9 -2 -1 -0 -0 -0 -0 -0 -0 -0 -0 -0 -0 -0 -0 -0 -0 -2 -1 -7 -14 -23 -27 -20 -21 -20 -16 -16 -19 -20 -18 -17 -23 -29
-33 -17 -19 -61 -111 -28 -44 -0 -11 -0 -10 -0 -5 -13 -19 -12 -1 -1 -0 -2 -4 -0 -0 -0 -0 -0 -0 -0 -0 -0 -0 -2 -7 -12 -27 -36 -1 -11 -8 -17 -21 -25 -25 -25 -25 -37 -27 -23 -22
-22 -11 -175 -1 -65 -22 -1 -11 -0 -9 -0 -3 -0 -0 -25 -8 -5 -17 -5 -0 -8 -0 -0 -0 -0 -0 -0 -0 -7 -0 -6 -3 -2 -3 -11 -28 -13 -1 -3 -8 -27 -27 -30 -31 -33 -45 -25 -17 -57
-3 -2 -203 -12 -13 -7 -0 -0 -5 -0 -0 -0 -1 -10 -30 -10 -7 -18 -0 -0 -1 -0 -0 -0 -0 -0 -0 -0 -1 -0 -0 -0 -0 -0 -0 -22 -4 -16 -100 -10 -35 -21 -21 -18 -24 -15 -84 -10 -111
-7 -1 -13 -19 -34 -0 -0 -0 -0 -5 -0 -0 -3 -9 -20 -1 -3 -6 -3 -0 -0 -0 -0 -0 -1 -0 -0 -0 -0 -0 -0 -0 -0 -0 -0 -1 -5 -0 -0 -34 -12 -8 -12 -3 -8 -9 -0 -114 -38
-7 -24 -7 -0 -0 -20 -1 -0 -0 -0 -5 -1 -10 -19 -5 -0 -0 -0 -0 -0 -0 -0 -0 -0 -0 -0 -0 -0 -0 -0 -1 -0 -1 -0 -0 -0 -0 -2 -57 -6 -30 -22 -11 -15 -27 -22 -0 -7 -3
-0 -23 -17 -0 -0 -1 -4 -0 -0 -1 -2 -8 -23 -27 -13 -0 -0 -0 -0 -0 -0 -0 -0 -0 -0 -0 -0 -0 -0 -0 -0 -1 -1 -0 -0 -7 -0 -1 -1 -2 -27 -38 -27 -15 -0 -3 -19 -25 -4
-0 -0 -12 -0 -0 -1 -2 -1 -0 -1 -2 -7 -25 -33 -16 -8 -0 -0 -0 -0 -1 -0 -0 -0 -0 -0 -0 -0 -0 -0 -0 -1 -2 -0 -0 -3 -2 -0 -4 -48 -19 -48 -1 -2 -1 -1 -1 -90 -24
-0 -0 -12 -7 -0 -0 -4 -2 -2 -1 -1 -3 -23 -33 -35 -22 -3 -0 -0 -0 -0 -0 -0 -0 -0 -0 -1 -0 -0 -0 -0 -12 -9 -8 -0 -11 -6 -5 -0 -8 -12 -11 -1 -1 -11 -0 -47 -98 -2
-0 -0 -0 -0 -0 -1 -0 -9 -109 -0 -0 -0 -6 -22 -32 -31 -7 -3 -0 -0 -0 -0 -0 -2 -1 -2 -1 -0 -0 -0 -0 -10 -18 -24 -0 -2 -3 -0 -1 -9 -55 -6 -2 -0 -10 -19 -7 -18 -3
-0 -0 -0 -0 -0 -0 -0 -0 -30 -0 -0 -0 -0 -1 -30 -32 -35 -12 -3 -3 -3 -5 -6 -0 -0 -0 -0 -0 -0 -0 -4 -13 -20 -28 -0 -1 -2 -0 -0 -1 -11 -2 -55 -3 -5 -3 -12 -12 -68
-0 -0 -0 -1 -3 -3 -0 -3 -6 -0 -0 -0 -0 -0 -13 -31 -31 -19 -21 -20 -12 -7 -10 -1 -0 -0 -0 -3 -6 -7 -32 -17 -38 -30 -0 -0 -0 -0 -0 -1 -6 -3 -1 -5 -1 -3 -4 -19 -0
-0 -0 -0 -0 -1 -1 -0 -5 -0 -2 -0 -0 -0 -1 -4 -4 -20 -36 -38 -28 -33 -23 -1 -0 -0 -0 -0 -4 -2 -14 -4 -36 -47 -47 -0 -0 -0 -0 -0 -0 -23 -9 -19 -2 -0 -2 -1 -6 -0
-0 -0 -0 -0 -0 -1 -0 -0 -0 -0 -2 -1 -0 -0 -2 -5 -22 -40 -45 -51 -49 -34 -4 -1 -0 -0 -0 -0 -0 -0 -1 -22 -37 -29 -4 -0 -0 -0 -0 -1 -3 -31 -3 -15 -0 -0 -4 -15 -0
-0 -0 -0 -0 -0 -0 -0 -0 -0 -0 -0 -1 -0 -0 -0 -11 -21 -29 -44 -58 -60 -64 -53 -1 -0 -0 -0 -0 -1 -0 -40 -56 -63 -17 -4 -0 -0 -0 -0 -0 -1 -4 -0 -1 -1 -0 -1 -6 -0
-0 -0 -0 -0 -0 -0 -0 -0 -1 -1 -1 -0 -0 -0 -0 -1 -11 -25 -39 -54 -65 -76 -78 -31 -0 -0 -0 -0 -0 -8 -1 -63 -46 -21 -0 -2 -0 -0 -0 -0 -0 -1 -1 -0 -0 -0 -3 -0 -0
-0 -0 -0 -0 -0 -0 -0 -0 -0 -0 -0 -0 -0 -1 -1 -0 -1 -18 -32 -45 -70 -82 -72 -36 -0 -0 -0 -0 -0 -0 -2 -5 -60 -12 -0 -0 -0 -0 -0 -0 -0 -0 -0 -0 -0 -0 -0 -1 -9
-0 -0 -0 -0 -0 -0 -0 -0 -0 -0 -0 -0 -0 -1 -1 -0 -1 -14 -17 -39 -54 -67 -33 -16 -0 -0 -0 -0 -0 -0 -0 -0 -1 -0 -1 -0 -0 -1 -2 -3 -0 -0 -0 -0 -0 -0 -0 -0 -2
-0 -0 -0 -0 -0 -0 -0 -0 -0 -0 -0 -0 -0 -0 -0 -0 -1 -6 -24 -40 -55 -54 -50 -37 -4 -0 -0 -0 -0 -0 -0 -13 -22 -3 -0 -8 -0 -0 -0 -1 -0 -0 -0 -0 -0 -0 -0 -0 -9
-0 -0 -0 -0 -0 -0 -0 -0 -0 -0 -0 -0 -0 -0 -0 -0 -0 -11 -21 -31 -46 -54 -62 -64 -13 -3 -0 -1 -0 -0 -0 -0 -20 -13 -1 -2 -0 -1 -0 -0 -0 -0 -0 -0 -0 -0 -0 -0 -3
-0 -0 -0 -0 -0 -0 -0 -0 -0 -0 -0 -0 -0 -0 -0 -0 -0 -8 -8 -33 -33 -64 -67 -70 -68 -24 -55 -33 -11 -6 -2 -1 -1 -0 -0 -1 -1 -0 -1 -1 -0 -0 -0 -0 -0 -0 -0 -0 -16
-0 -0 -0 -0 -0 -0 -0 -0 -0 -0 -0 -0 -0 -0 -0 -26 -0 -0 -8 -18 -43 -61 -75 -84 -64 -69 -29 -34 -30 -15 -9 -7 -2 -1 -0 -1 -0 -0 -1 -0 -0 -0 -0 -0 -0 -0 -0 -0 -0
-0 -0 -0 -0 -0 -0 -0 -0 -0 -0 -0 -0 -0 -0 -0 -41 -0 -0 -4 -21 -28 -52 -69 -93 -89 -91 -78 -81 -55 -40 -25 -15 -11 -9 -2 -1 -1 -0 -0 -4 -0 -0 -0 -0 -0 -0 -0 -0 -8
Wind_Speed
15 16 10 5 4 7 1 9 11 10 8 14 12 8 12 8 5 8 12 11 12 14 12 13 12 14 16 15 15 15 15 13 12 12 11 12 11 11 12 11 9 10 10 9 9 8 8 7 8
14 12 3 6 4 2 6 14 10 7 14 14 11 13 10 10 8 14 17 18 21 15 14 15 13 14 16 15 15 15 14 13 12 11 11 11 11 10 10 10 8 10 10 9 8 8 6 5 5
12 16 4 5 5 6 4 12 12 13 11 11 14 7 5 9 17 18 22 25 22 15 11 16 14 15 16 16 14 13 13 13 11 10 11 11 10 9 10 9 9 9 9 8 7 7 6 5 4
8 6 8 2 16 10 8 11 11 10 9 9 14 13 11 14 13 17 31 27 15 10 16 16 16 16 16 15 14 13 13 12 11 11 11 9 9 8 9 8 9 9 8 7 7 7 5 4 3
4 9 11 10 8 9 10 11 13 13 9 10 15 13 13 11 18 28 29 20 18 16 17 17 15 15 15 14 13 12 12 12 11 10 10 9 8 6 8 8 7 8 7 6 6 6 6 4 4
6 7 5 7 8 10 12 6 9 12 12 10 14 18 10 14 27 23 23 19 17 18 20 17 16 15 14 14 13 12 11 11 10 9 9 8 6 5 6 7 8 7 6 6 6 6 6 5 5
16 11 16 2 7 13 11 5 7 9 10 10 18 12 15 22 23 22 20 19 18 19 18 16 16 15 14 13 12 12 10 10 9 8 7 6 6 5 4 5 5 5 5 5 5 4 4 5 5
13 14 14 5 9 16 10 9 8 11 15 14 18 11 21 25 24 21 19 16 17 20 18 16 15 14 13 13 12 11 10 9 8 6 5 6 7 8 7 7 6 4 4 4 4 3 3 5 7
10 13 5 17 21 22 10 13 10 13 13 8 4 22 25 27 23 20 18 15 11 15 19 18 16 14 12 13 11 10 9 8 7 7 9 10 6 6 9 11 5 5 5 4 4 5 7 7 5
15 1 11 4 20 7 10 14 11 12 12 12 14 27 26 27 23 19 18 17 16 16 19 17 17 15 12 11 12 10 10 9 9 7 8 7 4 2 4 8 7 7 7 8 8 9 5 9 4
17 12 28 7 9 4 16 17 7 14 12 14 19 26 28 29 22 21 20 18 20 18 16 18 15 14 12 9 9 6 6 7 5 3 4 5 4 5 3 3 4 5 10 2 6 6 7 4 9
18 11 16 5 6 6 11 18 13 4 16 17 20 24 27 27 26 24 22 21 20 19 17 17 15 12 11 7 7 8 6 5 6 8 5 1 2 2 2 5 5 3 3 5 3 4 3 7 8
19 19 9 10 5 5 3 11 12 11 7 18 20 24 26 23 23 23 24 23 20 18 17 17 15 12 9 7 7 6 6 5 5 7 8 5 3 3 7 4 5 6 3 2 6 4 2 6 1
13 17 13 14 11 11 11 10 9 17 13 19 20 23 24 24 23 21 21 20 20 19 18 17 16 14 12 9 6 6 5 7 4 5 7 5 7 2 3 2 4 5 4 1 1 3 4 4 4
20 13 17 12 15 10 12 14 17 20 17 20 21 21 23 23 23 21 20 20 19 17 18 17 16 16 13 12 9 8 7 6 7 5 5 5 4 4 5 5 1 2 3 1 1 2 2 5 7
18 21 17 20 19 16 14 18 20 19 19 20 21 20 21 24 24 21 20 20 20 18 18 17 16 17 16 12 10 9 8 8 6 6 7 7 6 5 6 4 5 1 1 1 2 1 3 4 2
18 18 23 21 22 15 17 7 14 21 20 20 20 21 20 22 23 22 22 20 20 19 18 18 17 17 17 13 10 10 8 7 7 6 6 10 8 7 7 3 4 2 1 1 3 2 2 7 5
23 24 23 22 19 18 17 18 27 19 20 20 21 20 21 22 24 23 22 21 20 20 18 17 15 13 13 11 9 9 8 8 8 7 8 8 7 8 6 5 4 3 4 3 2 4 5 4 5
22 22 26 22 16 20 19 18 20 20 18 17 21 20 22 22 22 23 22 21 20 20 19 18 16 14 11 11 11 10 10 9 9 8 9 8 8 8 5 6 8 5 3 5 2 2 4 1 3
27 24 22 22 15 13 19 20 18 16 20 17 18 21 21 22 23 23 23 23 22 21 19 17 16 14 12 11 9 9 9 10 9 9 9 10 11 9 8 7 4 5 6 3 3 2 4 3 2
27 27 21 18 19 19 14 19 18 20 15 19 16 22 21 23 24 24 25 24 23 22 20 19 17 16 15 14 9 7 8 7 9 9 10 11 10 10 10 10 6 1 4 6 6 6 4 3 3
27 26 23 19 20 17 23 16 19 18 19 18 19 21 23 24 25 25 26 25 25 23 21 19 19 17 16 16 13 14 11 11 11 9 10 10 12 11 11 9 7 5 6 3 5 5 3 4 5
23 21 23 22 18 17 19 20 17 26 23 23 21 20 24 25 26 26 27 27 26 23 22 20 19 18 17 17 16 13 14 11 9 10 10 10 10 11 12 10 10 8 8 6 2 5 5 4 6
21 19 21 23 18 21 24 20 18 16 25 27 23 21 21 24 25 26 26 25 24 23 22 21 20 19 18 18 19 15 15 14 12 11 10 10 10 11 11 11 9 9 8 6 8 6 7 7 4
20 20 14 17 20 16 24 24 18 18 19 18 19 22 21 22 24 25 26 25 24 24 23 21 21 20 20 19 18 19 16 16 13 11 11 10 10 11 12 14 9 10 9 9 7 8 7 8 6
26 25 16 21 18 18 24 27 23 24 12 14 22 20 22 22 23 24 25 25 24 24 24 22 22 22 21 21 20 18 17 13 14 13 11 11 10 10 8 13 11 11 12 11 8 8 8 8 8
23 30 25 23 23 16 20 24 27 22 27 20 15 21 23 24 23 25 27 25 25 23 24 24 22 23 22 22 19 19 18 18 16 17 14 12 10 11 9 10 11 12 12 11 10 9 10 7 9
28 23 24 19 22 20 16 16 17 21 18 25 25 17 21 24 24 24 24 26 23 25 24 25 24 23 24 24 21 19 20 20 17 14 15 15 13 11 8 12 12 13 12 12 11 11 10 10 9
26 23 27 21 18 14 12 9 17 19 22 21 21 26 21 21 24 24 23 25 25 23 24 24 23 24 22 23 22 21 20 20 19 17 16 16 14 13 14 11 13 13 14 13 12 12 10 13 11
27 28 29 18 24 18 12 2 11 10 8 17 21 19 24 20 22 22 23 21 23 24 24 25 25 25 23 22 21 22 20 20 20 19 19 18 17 16 15 15 15 15 15 14 15 15 14 13 14
Wind_Direction
170 182 190 174 252 240 133 91 96 99 78 99 115 104 103 45 43 121 135 150 156 172 139 151 143 135 125 123 123 121 118 123 115 110 102 96 89 82 84 85 86 90 87 92 96 95 97 99 105
175 177 203 259 248 222 107 75 66 103 100 107 111 109 77 84 85 126 146 159 171 158 147 146 143 137 128 123 124 121 125 120 116 109 107 98 90 80 86 79 85 93 93 88 94 94 94 107 100
169 207 236 241 260 108 81 141 125 96 119 126 104 111 51 85 118 142 141 156 184 157 138 132 143 135 127 128 125 125 124 120 114 113 100 94 91 87 80 72 78 83 86 91 92 96 95 98 106
185 219 244 183 281 88 104 102 98 115 116 102 116 84 83 120 132 153 143 165 154 155 147 139 146 137 134 130 128 128 124 123 117 106 101 96 90 86 80 85 89 83 81 82 85 85 85 80 90
240 253 248 220 163 63 77 88 117 142 132 131 107 98 101 107 147 140 149 153 158 153 143 146 147 137 136 134 134 132 131 120 116 111 106 103 98 79 78 86 88 86 88 86 81 85 76 65 70
252 236 91 252 84 97 85 121 111 89 107 102 97 117 115 131 136 140 151 155 154 158 147 140 142 137 139 138 138 136 125 121 121 115 111 110 106 89 76 76 77 88 88 88 85 83 81 63 68
256 306 286 292 110 90 91 147 105 103 121 124 133 124 128 148 147 155 154 155 169 156 140 149 147 142 144 141 139 133 131 132 124 123 126 129 128 118 101 93 84 79 80 86 87 79 82 90 90
261 269 298 311 87 102 118 93 88 131 81 125 130 135 152 146 160 156 156 161 175 147 148 151 151 158 157 149 141 139 143 140 137 141 162 173 177 175 170 154 112 121 121 115 121 128 147 144 129
244 270 124 255 40 115 140 104 81 83 128 130 77 134 140 146 163 157 152 156 191 158 154 161 160 162 166 149 142 148 153 149 159 176 210 206 208 171 154 81 106 133 146 148 157 176 201 173 162
236 39 274 292 166 89 126 122 115 133 138 131 116 119 140 154 165 160 159 158 187 173 167 165 168 160 166 164 145 173 161 175 193 185 204 147 218 95 60 125 156 159 175 178 188 216 252 202 185
232 243 229 110 25 219 140 122 148 117 157 150 132 143 155 154 164 162 167 162 191 166 176 168 171 159 178 144 163 178 169 170 172 156 247 189 100 256 185 164 152 208 189 199 182 184 229 208 173
239 259 259 91 122 268 152 131 138 204 131 147 141 155 161 166 165 170 174 169 191 170 185 167 168 159 190 151 186 175 170 183 181 176 212 107 219 202 125 196 173 111 307 66 325 27 355 38 306
226 261 217 249 232 242 270 141 143 143 139 142 145 161 169 175 174 174 176 173 177 178 186 171 169 164 190 193 190 203 184 199 202 145 176 263 281 129 83 279 161 152 35 300 73 277 337 115 302
217 231 253 236 209 183 227 168 204 148 154 145 158 169 175 181 180 177 182 173 178 180 183 178 174 173 191 200 217 217 203 168 229 184 159 204 278 133 331 238 318 108 170 109 79 50 210 84 349
230 252 228 225 237 216 222 188 187 151 165 158 165 173 179 185 182 184 184 178 182 181 179 186 185 178 191 198 199 213 190 222 193 219 155 211 212 182 278 342 142 163 140 119 112 230 29 107 260
220 229 219 212 217 212 208 208 175 156 170 170 171 176 179 186 186 187 187 183 179 184 183 192 191 180 185 195 193 211 219 204 210 205 181 195 206 254 241 245 109 56 344 140 216 166 120 258 171
214 221 223 220 204 204 207 164 308 167 178 176 178 178 181 184 192 188 187 188 181 188 186 191 194 189 184 196 203 211 205 224 213 210 214 163 203 212 251 211 59 177 22 220 139 194 281 195 196
214 215 217 222 191 207 197 242 182 167 178 184 181 181 186 186 191 185 190 188 188 186 187 192 194 202 180 188 206 204 212 209 225 216 215 159 211 221 228 240 189 264 188 55 103 45 306 356 23
237 211 231 201 184 199 223 222 186 169 185 198 174 186 189 190 186 184 192 186 190 188 189 192 197 189 187 198 197 209 206 202 214 220 213 197 224 222 213 261 216 220 215 121 108 193 180 235 110
234 243 214 232 199 203 208 221 204 244 183 197 190 184 193 186 182 189 189 190 192 191 188 188 196 191 197 199 210 209 213 208 209 212 199 214 217 216 208 240 194 231 141 130 194 251 285 161 143
225 233 232 222 218 214 227 227 223 225 207 184 209 181 194 190 186 187 189 197 193 191 188 189 190 194 195 216 199 207 224 234 204 215 206 205 216 217 210 192 249 133 290 149 170 190 281 269 148
220 222 237 238 233 209 204 233 211 218 200 196 198 192 186 195 190 185 190 193 196 194 191 189 187 195 195 201 207 205 209 211 218 208 212 205 194 215 201 218 197 232 241 136 155 196 274 272 156
227 214 223 238 243 250 232 221 238 197 211 197 204 199 189 191 191 189 190 191 196 194 192 192 187 192 199 195 219 198 216 215 209 220 209 203 183 204 218 206 187 205 226 236 270 126 231 185 293
214 230 221 219 234 238 231 242 219 225 203 207 188 205 196 187 191 194 186 187 194 193 194 191 187 193 198 196 201 220 202 228 212 202 210 210 212 193 214 218 207 193 220 227 204 198 205 251 220
208 207 204 216 214 227 225 233 235 229 220 202 208 195 195 190 191 191 187 187 187 192 194 193 186 193 195 201 201 211 217 204 231 213 208 217 217 207 191 197 207 203 203 236 212 185 212 207 223
206 210 217 209 216 220 227 229 224 236 247 230 196 206 193 186 194 191 192 187 186 189 190 194 187 190 194 200 203 200 211 213 214 217 222 210 233 211 195 178 194 216 194 213 202 212 212 196 210
192 216 218 241 213 234 213 217 237 228 222 218 242 201 195 184 193 190 190 195 188 188 190 192 193 191 193 200 202 204 203 212 212 216 210 236 215 238 188 185 189 203 212 201 205 219 190 213 203
228 203 215 229 249 223 232 242 206 208 223 212 206 211 218 178 187 195 193 192 195 190 191 191 195 194 196 197 200 203 203 205 215 209 215 210 226 222 240 181 192 207 205 209 205 207 212 200 205
205 210 213 229 232 244 242 239 220 200 201 215 217 209 214 207 184 193 195 194 194 196 192 195 197 200 195 200 202 204 204 204 205 216 208 216 208 218 211 200 195 202 208 207 205 223 217 195 209
208 218 199 222 214 238 267 95 30 155 207 188 215 210 209 202 189 191 189 197 194 197 199 198 201 202 203 202 205 204 205 204 204 208 212 204 212 206 203 208 196 204 207 207 207 209 221 201 207